1518091201.11,21266,8.31,72616.5,-0.89,-0.93,-0.93,0,*60
1518091202.36,21267,8.31,72618.0,-0.85,-0.89,-0.85,0,*61
1518091203.61,21268,8.31,72616.5,-0.85,-0.85,-0.85,0,*62
1518091204.85,21269,8.31,72616.8,-0.89,-0.93,-0.93,0,*6F
1518091206.1,21270,8.31,72616.3,-0.85,-0.89,-0.89,0,*6B
1518091207.34,21271,8.31,72616.8,-0.83,-0.81,-0.85,0,*68
1518091208.59,21272,8.31,72620.8,-0.85,-0.89,-0.89,0,*69
1518091209.84,21273,8.31,72622.3,-0.85,-0.89,-0.89,0,*68
1518091211.09,21274,8.31,72620.8,-0.85,-0.89,-0.89,0,*6F
1518091212.34,21275,8.31,72620.5,-0.85,-0.89,-0.97,0,*61
1518091213.59,21276,8.31,72624.8,-0.85,-0.89,-1.01,0,*5C
1518091214.85,21277,8.31,72620.8,-0.83,-0.85,-0.93,0,*6D
1518091216.1,21278,8.31,72620.3,-0.85,-0.89,-0.97,0,*6C
1518091217.35,21279,8.31,72620.3,-0.83,-0.85,-0.93,0,*63
1518091218.6,21280,8.31,72618.0,-0.85,-0.89,-0.97,0,*6B
1518091219.85,21281,8.31,72616.5,-0.85,-0.85,-0.89,0,*69
1518091221.1,21282,8.31,72614.5,-0.85,-0.89,-0.85,0,*6A
1518091222.35,21283,8.31,72614.8,-0.83,-0.85,-0.85,0,*61
1518091223.61,21284,8.31,72618.0,-0.89,-0.93,-1.01,0,*56
1518091224.85,21285,8.31,72616.8,-0.85,-0.89,-0.97,0,*6E
1518091226.1,21286,8.31,72618.8,-0.85,-0.89,-0.89,0,*62
1518091227.36,21287,8.31,72618.8,-0.83,-0.85,-0.85,0,*65
1518091228.62,21288,8.31,72618.5,-0.83,-0.85,-0.85,0,*6A
1518091229.88,21289,8.31,72618.0,-0.83,-0.85,-0.85,0,*6B
1518091231.12,21290,8.31,72618.8,-0.85,-0.89,-0.89,0,*65
1518091232.37,21291,8.31,72618.3,-0.85,-0.89,-0.89,0,*64
1518091233.63,21292,8.31,72618.3,-0.83,-0.85,-0.85,0,*61
1518091234.88,21293,8.31,72618.5,-0.85,-0.89,-0.97,0,*69
1518091236.13,21294,8.31,72622.5,-0.85,-0.89,-0.97,0,*6E
1518091237.38,21295,8.31,72616.3,-0.85,-0.89,-0.97,0,*6F
1518091238.63,21296,8.31,72622.0,-0.85,-0.89,-0.97,0,*6C
1518091239.88,21297,8.31,72618.8,-0.83,-0.85,-0.93,0,*63
1518091241.13,21298,8.31,72622.8,-0.85,-0.97,-0.97,0,*6D
1518091242.38,21299,8.31,72626.0,-0.85,-0.97,-0.97,0,*6C
1518091243.64,21300,8.31,72622.5,-0.85,-0.97,-1.01,0,*53
1518091244.9,21301,8.31,72620.5,-0.85,-1.01,-0.97,0,*52
1518091246.15,21302,8.31,72620.0,-0.85,-0.97,-1.01,0,*51
1518091247.4,21303,8.31,72622.0,-0.85,-0.97,-0.97,0,*6E
1518091248.67,21304,8.31,72618.3,-0.83,-0.97,-1.05,0,*55
1518091249.93,21305,8.31,72622.0,-0.85,-0.97,-1.01,0,*56
1518091251.19,21306,8.31,72622.0,-0.85,-1.01,-1.01,0,*6B
1518091252.45,21307,8.31,72616.8,-0.83,-0.93,-1.05,0,*52
1518091253.71,21308,8.31,72622.3,-0.85,-1.01,-1.01,0,*65
1518091254.97,21309,8.31,72624.0,-0.85,-1.01,-1.01,0,*64
1518091256.23,21310,8.31,72618.0,-0.85,-1.01,-1.01,0,*6C
1518091257.49,21311,8.38,72626.8,-0.85,-1.09,-1.01,0,*65
1518091258.75,21312,8.31,72622.8,-0.85,-1.01,-1.01,0,*6E
1518091260.02,21313,8.31,72618.5,-0.89,-1.05,-1.05,0,*63
1518091261.29,21314,8.31,72620.0,-0.89,-1.05,-1.05,0,*64
1518091262.55,21315,8.31,72620.0,-0.89,-1.05,-1.13,0,*62
1518091263.81,21316,8.31,72622.0,-0.89,-1.05,-1.13,0,*61
1518091265.07,21317,8.31,72622.3,-0.89,-1.05,-1.13,0,*60
1518091266.34,21318,8.31,72620.0,-0.89,-1.05,-1.05,0,*68
1518091267.6,21319,8.31,72622.8,-0.89,-1.01,-1.13,0,*6A
1518091268.86,21320,8.31,72620.8,-0.89,-1.01,-1.05,0,*67
1518091270.13,21321,8.31,72622.3,-0.83,-0.97,-1.01,0,*56
1518091271.39,21322,8.31,72622.0,-0.85,-1.01,-1.09,0,*65
1518091272.65,21323,8.31,72622.0,-0.85,-0.97,-1.01,0,*52
1518091273.91,21324,8.31,72620.5,-0.89,-1.05,-1.01,0,*63
1518091275.16,21325,8.31,72622.3,-0.91,-1.01,-1.05,0,*6B
1518091276.42,21326,8.31,72622.3,-0.89,-1.05,-1.05,0,*65
1518091277.68,21327,8.31,72622.3,-0.89,-1.05,-1.13,0,*63
1518091278.95,21328,8.31,72622.8,-0.89,-1.01,-1.05,0,*6F
1518091280.21,21329,8.31,72616.5,-0.89,-1.05,-1.01,0,*6E
1518091281.48,21330,8.31,72620.5,-0.89,-1.05,-1.05,0,*62
1518091282.75,21331,8.31,72620.3,-0.89,-1.01,-1.05,0,*67
1518091284.01,21332,8.31,72618.3,-0.89,-1.05,-1.05,0,*60
1518091285.28,21333,8.31,72622.3,-0.89,-1.05,-1.01,0,*65
1518091286.52,21334,8.31,72624.0,-0.91,-1.05,-1.05,0,*6F
1518091287.79,21335,8.31,72618.5,-0.89,-1.01,-1.01,0,*67
1518091289.05,21336,8.31,72622.5,-0.89,-1.05,-1.01,0,*60
1518091290.29,21337,8.31,72618.5,-0.89,-1.05,-1.17,0,*66
1518091291.53,21338,8.31,72620.0,-0.89,-1.05,-1.17,0,*69
1518091292.8,21339,8.31,72620.5,-0.89,-1.05,-1.13,0,*6C
1518091294.04,21340,8.31,72622.3,-0.89,-1.05,-1.17,0,*66
1518091295.3,21341,8.31,72620.0,-0.89,-1.05,-1.13,0,*63
1518091296.52,21342,8.31,72618.5,-0.91,-1.13,-1.17,0,*6A
1518091297.77,21343,8.31,72622.0,-0.89,-1.13,-1.13,0,*66
1518091298.99,21344,8.31,72622.8,-0.89,-1.17,-1.17,0,*61
1518091300.25,21345,8.31,72620.0,-0.89,-1.13,-1.13,0,*60
1518091301.47,21346,8.31,72620.8,-0.89,-1.17,-1.17,0,*63
1518091302.69,21347,8.31,72624.0,-0.89,-1.17,-1.17,0,*62
1518091303.88,21348,8.31,72622.8,-0.91,-1.17,-1.17,0,*64
1518091305.1,21349,8.31,72622.8,-0.91,-1.13,-1.17,0,*61
1518091306.32,21350,8.31,72626.0,-0.91,-1.13,-1.17,0,*69
1518091307.54,21351,8.38,72626.3,-0.91,-1.13,-1.17,0,*68
1518091308.77,21352,8.31,72624.5,-0.89,-1.13,-1.17,0,*62
1518091309.97,21353,8.31,72624.0,-0.91,-1.17,-1.17,0,*6E
1518091311.19,21354,8.31,72622.8,-0.91,-1.17,-1.13,0,*6D
1518091312.43,21355,8.38,72626.3,-0.91,-1.13,-1.13,0,*68
1518091313.66,21356,8.31,72622.0,-0.91,-1.13,-1.13,0,*6B
1518091314.88,21357,8.38,72620.8,-0.91,-1.17,-1.13,0,*6E
1518091316.1,21358,8.31,72622.8,-0.91,-1.13,-1.17,0,*61
1518091317.32,21359,8.31,72622.3,-0.91,-1.17,-1.13,0,*60
1518091318.54,21360,8.31,72622.3,-0.93,-1.21,-1.21,0,*6C
1518091319.73,21361,8.38,72626.8,-0.91,-1.17,-1.17,0,*6F
1518091320.93,21362,8.31,72622.8,-0.91,-1.17,-1.17,0,*6C
1518091322.17,21363,8.31,72622.5,-0.91,-1.13,-1.13,0,*6D
1518091323.39,21364,8.31,72622.8,-0.91,-1.17,-1.13,0,*6E
1518091324.59,21365,8.31,72620.8,-0.91,-1.17,-1.17,0,*6B
1518091325.8,21366,8.31,72624.3,-0.93,-1.21,-1.29,0,*62
1518091327.02,21367,8.31,72624.5,-0.93,-1.21,-1.21,0,*6B
1518091328.25,21368,8.31,72626.0,-0.93,-1.17,-1.21,0,*61
1518091329.47,21369,8.31,72622.0,-0.93,-1.29,-1.29,0,*65
1518091330.68,21370,8.38,72626.8,-0.93,-1.29,-1.33,0,*66
1518091331.87,21371,8.31,72620.3,-0.91,-1.25,-1.25,0,*6E
1518091333.06,21372,8.31,72624.0,-0.91,-1.25,-1.29,0,*61
1518091334.25,21373,8.31,72620.8,-0.91,-1.25,-1.25,0,*6C
1518091335.44,21374,8.38,72624.3,-0.91,-1.29,-1.29,0,*6B
1518091336.64,21375,8.31,72624.3,-0.91,-1.29,-1.29,0,*6A
1518091337.83,21376,8.31,72620.3,-0.91,-1.29,-1.29,0,*69
1518091339.03,21377,8.31,72622.8,-0.91,-1.29,-1.29,0,*68
1518091340.25,21378,8.31,72622.8,-0.95,-1.29,-1.43,0,*6F
1518091341.49,21379,8.38,72626.0,-0.93,-1.29,-1.39,0,*65
1518091342.74,21380,8.38,72622.5,-0.93,-1.33,-1.39,0,*68
1518091343.99,21381,8.38,72624.8,-0.93,-1.33,-1.39,0,*69
1518091345.23,21382,8.31,72622.3,-0.93,-1.33,-1.39,0,*6A
1518091346.45,21383,8.38,72624.3,-0.95,-1.33,-1.39,0,*6D
1518091347.68,21384,8.38,72626.5,-0.95,-1.29,-1.39,0,*61
1518091348.92,21385,8.31,72624.0,-0.93,-1.33,-1.39,0,*6D
1518091350.17,21386,8.31,72624.3,-0.93,-1.33,-1.39,0,*6E
1518091351.42,21387,8.31,72626.3,-0.95,-1.39,-1.39,0,*63
1518091352.67,21388,8.31,72624.3,-0.95,-1.39,-1.39,0,*6C
1518091353.86,21389,8.31,72624.0,-0.95,-1.29,-1.33,0,*66
1518091355.08,21390,8.31,72624.8,-0.95,-1.29,-1.39,0,*64
1518091356.35,21391,8.31,72624.5,-0.97,-1.35,-1.43,0,*67
1518091357.62,21392,8.31,72624.0,-0.97,-1.35,-1.47,0,*60
1518091358.88,21393,8.38,72626.5,-0.97,-1.35,-1.43,0,*65
1518091360.12,21394,8.38,72626.5,-0.97,-1.35,-1.33,0,*65
1518091361.38,21395,8.31,72626.5,-0.97,-1.35,-1.43,0,*63
1518091362.65,21396,8.38,72624.3,-0.97,-1.35,-1.43,0,*60
1518091363.9,21397,8.31,72624.8,-0.97,-1.33,-1.35,0,*66
1518091365.11,21398,8.31,72624.8,-0.97,-1.33,-1.33,0,*6F
1518091366.33,21399,8.31,72622.8,-0.97,-1.33,-1.33,0,*6E
1518091367.57,21400,8.31,72624.3,-0.99,-1.35,-1.39,0,*6B
1518091368.81,21401,8.31,72624.0,-0.97,-1.35,-1.33,0,*6E
1518091370.02,21402,8.38,72626.8,-0.97,-1.25,-1.33,0,*6C
1518091371.23,21403,8.38,72624.3,-0.97,-1.25,-1.33,0,*6D
1518091372.47,21404,8.38,72624.5,-0.97,-1.35,-1.33,0,*6B
1518091373.68,21405,8.31,72620.0,-0.97,-1.25,-1.33,0,*6B
1518091374.9,21406,8.31,72620.0,-0.97,-1.21,-1.33,0,*6C
1518091376.12,21407,8.31,72620.5,-0.97,-1.33,-1.33,0,*6E
1518091377.33,21408,8.31,72622.0,-0.97,-1.25,-1.33,0,*66
1518091378.54,21409,8.38,72624.8,-0.97,-1.25,-1.25,0,*60
1518091379.75,21410,8.38,72624.8,-0.97,-1.25,-1.25,0,*68
1518091380.97,21411,8.38,72624.3,-0.97,-1.21,-1.25,0,*6D
1518091382.18,21412,8.38,72624.3,-0.97,-1.25,-1.25,0,*6A
1518091383.4,21413,8.31,72620.3,-0.97,-1.21,-1.21,0,*6B
1518091384.59,21414,8.38,72626.3,-0.99,-1.25,-1.29,0,*6E
1518091385.82,21415,8.38,72624.5,-0.97,-1.21,-1.21,0,*6D
1518091387.04,21416,8.38,72626.0,-0.97,-1.21,-1.21,0,*6E
1518091388.28,21417,8.31,72624.0,-0.97,-1.13,-1.25,0,*6A
1518091389.51,21418,8.31,72620.3,-0.97,-1.13,-1.25,0,*65
1518091390.72,21419,8.31,72622.3,-0.99,-1.17,-1.21,0,*6A
1518091391.93,21420,8.38,72626.5,-0.99,-1.13,-1.17,0,*61
1518091393.19,21421,8.38,72628.8,-0.97,-1.09,-1.13,0,*61
1518091394.45,21422,8.38,72628.5,-0.97,-1.13,-1.13,0,*69
1518091395.69,21423,8.38,72630.3,-0.97,-1.21,-1.13,0,*69
1518091396.95,21424,8.31,72626.0,-0.97,-1.09,-1.13,0,*64
1518091398.15,21425,8.31,72626.8,-0.99,-1.17,-1.25,0,*61
1518091399.41,21426,8.31,72628.3,-0.97,-1.13,-1.13,0,*6D
1518091400.67,21427,8.31,72624.8,-0.97,-1.13,-1.09,0,*67
1518091401.93,21428,8.38,72630.0,-0.97,-1.09,-1.09,0,*63
1518091403.19,21429,8.31,72626.8,-0.97,-1.09,-1.09,0,*62
1518091404.45,21430,8.31,72624.5,-0.97,-1.13,-1.13,0,*6A
1518091405.7,21431,8.31,72626.8,-0.95,-1.05,-1.05,0,*69
1518091406.95,21432,8.38,72628.3,-0.95,-1.05,-1.05,0,*6A
1518091408.22,21433,8.38,72624.8,-0.93,-1.05,-1.05,0,*6D
1518091409.47,21434,8.38,72626.8,-0.95,-1.05,-1.05,0,*6C
1518091410.71,21435,8.38,72624.5,-0.95,-1.05,-1.05,0,*6D
1518091411.96,21436,8.38,72626.3,-0.95,-1.05,-1.05,0,*6E
1518091413.21,21437,8.38,72626.3,-0.95,-1.05,-1.05,0,*6F
1518091414.47,21438,8.38,72626.0,-0.93,-0.93,-1.05,0,*58
1518091415.73,21439,8.38,72624.5,-0.93,-0.97,-1.05,0,*5D
1518091416.99,21440,8.38,72624.8,-0.93,-0.97,-1.05,0,*53
1518091418.23,21441,8.38,72624.0,-0.95,-0.97,-0.97,0,*6E
1518091419.48,21442,8.38,72626.0,-0.93,-0.97,-0.97,0,*6B
1518091420.73,21443,8.38,72624.5,-0.93,-0.97,-0.97,0,*6A
1518091421.98,21444,8.31,72622.3,-0.93,-0.93,-0.93,0,*6D
1518091423.24,21445,8.38,72622.3,-0.93,-0.97,-0.97,0,*6C
1518091424.49,21446,8.38,72626.5,-0.93,-0.97,-0.97,0,*6F
1518091425.75,21447,8.38,72620.0,-0.93,-0.97,-0.97,0,*6E
1518091427.0,21448,8.38,72620.0,-0.93,-0.97,-0.97,0,*61
1518091428.25,21449,8.31,72620.3,-0.93,-0.97,-0.97,0,*60
1518091429.5,21450,8.38,72622.3,-0.93,-0.93,-0.97,0,*6C
1518091430.73,21451,8.31,72622.3,-0.91,-0.93,-0.93,0,*6B
1518091431.98,21452,8.38,72626.5,-0.89,-0.85,-0.93,0,*66
1518091433.22,21453,8.38,72622.0,-0.89,-0.93,-0.93,0,*60
1518091434.45,21454,8.38,72620.8,-0.91,-0.93,-0.89,0,*65
1518091435.7,21455,8.38,72622.5,-0.89,-0.89,-0.89,0,*66
1518091436.93,21456,8.38,72622.3,-0.91,-0.85,-0.89,0,*60
1518091438.15,21457,8.38,72622.5,-0.91,-0.85,-0.93,0,*6A
1518091439.4,21458,8.38,72622.3,-0.89,-0.85,-0.85,0,*6B
1518091440.65,21459,8.38,72620.3,-0.89,-0.89,-0.85,0,*66
1518091441.9,21460,8.38,72622.0,-0.89,-0.85,-0.85,0,*60
1518091443.15,21461,8.38,72620.8,-0.89,-0.89,-0.89,0,*61
1518091444.4,21462,8.38,72620.5,-0.89,-0.85,-0.85,0,*62
1518091445.63,21463,8.38,72622.8,-0.91,-0.89,-0.85,0,*66
1518091446.88,21464,8.38,72620.3,-0.89,-0.85,-0.93,0,*63
1518091448.13,21465,8.38,72620.5,-0.89,-0.89,-0.85,0,*69
1518091449.37,21466,8.38,72618.5,-0.89,-0.85,-0.89,0,*6A
1518091450.62,21467,8.31,72618.8,-0.89,-0.85,-0.93,0,*60
1518091451.85,21468,8.38,72618.5,-0.91,-0.93,-0.89,0,*6A
1518091453.08,21469,8.38,72620.3,-0.85,-0.81,-0.89,0,*6D
1518091454.32,21470,8.38,72618.5,-0.85,-0.85,-0.89,0,*61
1518091455.57,21471,8.38,72616.0,-0.85,-0.89,-0.89,0,*6C
1518091456.82,21472,8.38,72616.5,-0.85,-0.85,-0.89,0,*63
1518091458.06,21473,8.38,72618.8,-0.83,-0.81,-0.85,0,*6C
1518091459.31,21474,8.31,72614.3,-0.85,-0.89,-0.89,0,*69
1518091460.56,21475,8.38,72618.5,-0.85,-0.89,-0.85,0,*64
1518091461.81,21476,8.38,72618.0,-0.85,-0.89,-0.89,0,*6B
1518091463.05,21477,8.38,72618.0,-0.85,-0.89,-0.89,0,*6A
1518091464.31,21478,8.38,72614.3,-0.83,-0.85,-0.85,0,*63
1518091465.56,21479,8.38,72616.0,-0.85,-0.89,-0.89,0,*64
1518091466.81,21480,8.38,72616.0,-0.85,-0.89,-0.89,0,*62
1518091468.06,21481,8.38,72616.8,-0.85,-0.89,-0.97,0,*6C
1518091469.31,21482,8.38,72616.0,-0.85,-0.89,-0.97,0,*6F
1518091470.56,21483,8.38,72616.8,-0.85,-0.89,-0.89,0,*61
1518091471.81,21484,8.38,72618.3,-0.83,-0.85,-0.85,0,*60
1518091473.07,21485,8.38,72616.8,-0.83,-0.93,-0.85,0,*66
1518091474.32,21486,8.38,72616.3,-0.83,-0.93,-0.85,0,*65
1518091475.57,21487,8.38,72622.8,-0.83,-0.93,-0.85,0,*64
1518091476.83,21488,8.38,72618.3,-0.83,-0.93,-0.93,0,*6C
1518091478.08,21489,8.38,72620.5,-0.83,-0.93,-0.93,0,*6D
1518091479.33,21490,8.38,72620.0,-0.83,-0.93,-0.97,0,*61
1518091480.59,21491,8.38,72620.3,-0.85,-0.97,-0.97,0,*62
1518091481.84,21492,8.38,72616.5,-0.83,-0.93,-0.97,0,*63
1518091483.09,21493,8.38,72620.8,-0.83,-0.93,-0.93,0,*66
1518091484.34,21494,8.38,72620.3,-0.85,-0.97,-0.97,0,*67
1518091485.6,21495,8.38,72616.3,-0.83,-0.93,-0.93,0,*60
1518091486.85,21496,8.38,72616.5,-0.83,-0.93,-0.93,0,*63
1518091488.1,21497,8.38,72620.8,-0.83,-0.93,-0.93,0,*62
1518091489.36,21498,8.38,72622.3,-0.83,-0.93,-0.97,0,*69
1518091490.61,21499,8.38,72618.0,-0.83,-0.85,-0.93,0,*6B
1518091491.87,21500,8.38,72622.0,-0.83,-0.85,-0.97,0,*6E
1518091493.12,21501,8.38,72618.5,-0.83,-0.93,-0.93,0,*6C
1518091494.38,21502,8.38,72620.0,-0.83,-0.93,-0.93,0,*6F
1518091495.63,21503,8.38,72616.8,-0.85,-0.97,-0.97,0,*68
1518091496.88,21504,8.38,72622.0,-0.85,-0.97,-0.97,0,*6F
1518091498.13,21505,8.38,72618.5,-0.83,-0.93,-0.93,0,*68
1518091499.39,21506,8.38,72618.3,-0.83,-0.93,-0.97,0,*6F
1518091500.64,21507,8.38,72618.5,-0.83,-0.93,-0.93,0,*6A
1518091501.9,21508,8.38,72616.0,-0.83,-0.97,-0.97,0,*65
1518091503.16,21509,8.38,72618.8,-0.83,-0.97,-0.97,0,*64
1518091504.41,21510,8.38,72618.5,-0.83,-0.93,-0.93,0,*6C
1518091505.68,21511,8.38,72622.0,-0.83,-0.97,-1.01,0,*53
1518091506.94,21512,8.38,72620.3,-0.83,-0.97,-0.93,0,*6A
1518091508.2,21513,8.38,72620.8,-0.83,-0.97,-0.97,0,*6F
1518091509.45,21514,8.38,72618.8,-0.83,-0.93,-0.93,0,*68
1518091510.7,21515,8.38,72616.5,-0.83,-0.93,-0.93,0,*69
1518091511.96,21516,8.38,72622.0,-0.83,-0.97,-0.93,0,*6E
1518091513.22,21517,8.38,72620.0,-0.85,-1.01,-1.01,0,*6D
1518091514.48,21518,8.38,72618.5,-0.83,-0.93,-0.93,0,*64
1518091515.73,21519,8.38,72620.8,-0.83,-0.93,-0.97,0,*61
1518091516.98,21520,8.38,72618.0,-0.83,-0.93,-0.93,0,*6F
1518091518.24,21521,8.38,72618.5,-0.83,-0.97,-0.97,0,*6E
1518091519.5,21522,8.38,72620.3,-0.83,-0.93,-0.97,0,*69
1518091520.76,21523,8.38,72620.3,-0.83,-0.97,-0.97,0,*6C
1518091522.02,21524,8.38,72620.5,-0.83,-0.93,-1.05,0,*55
1518091523.25,21525,8.38,72622.8,-0.81,-0.93,-0.97,0,*6C
1518091524.48,21526,8.38,72620.3,-0.81,-0.97,-0.93,0,*6F
1518091525.72,21527,8.38,72620.8,-0.81,-0.97,-1.05,0,*50
1518091526.99,21528,8.38,72616.0,-0.83,-0.97,-1.05,0,*5D
1518091528.25,21529,8.38,72620.5,-0.83,-0.93,-1.05,0,*58
1518091529.52,21530,8.38,72618.8,-0.83,-0.97,-1.05,0,*54
1518091530.79,21531,8.38,72622.0,-0.83,-0.97,-1.05,0,*55
1518091532.06,21532,8.38,72620.8,-0.83,-1.05,-0.97,0,*56
1518091533.32,21533,8.38,72620.5,-0.85,-1.09,-1.05,0,*67
1518091534.6,21534,8.38,72624.3,-0.83,-1.05,-1.05,0,*6A
1518091535.86,21535,8.38,72626.3,-0.85,-1.13,-1.09,0,*66
1518091537.13,21536,8.38,72622.0,-0.83,-1.05,-1.09,0,*64
1518091538.4,21537,8.38,72620.5,-0.83,-1.05,-1.09,0,*65
1518091539.67,21538,8.38,72618.8,-0.83,-1.05,-1.09,0,*6A
1518091540.93,21539,8.38,72620.5,-0.85,-1.09,-1.09,0,*61
1518091542.19,21540,8.38,72618.5,-0.83,-0.97,-1.09,0,*5F
1518091543.46,21541,8.38,72622.3,-0.83,-1.05,-1.09,0,*64
1518091544.72,21542,8.38,72618.5,-0.85,-1.09,-1.09,0,*6D
1518091545.99,21543,8.38,72620.8,-0.83,-1.05,-1.09,0,*66
1518091547.27,21544,8.38,72620.3,-0.83,-1.05,-1.05,0,*6D
1518091548.52,21545,8.38,72620.0,-0.85,-1.09,-1.13,0,*61
1518091549.79,21546,8.38,72620.3,-0.83,-1.09,-1.09,0,*6F
1518091551.06,21547,8.38,72620.3,-0.83,-1.09,-1.05,0,*62
1518091552.33,21548,8.38,72620.3,-0.83,-1.05,-1.05,0,*61
1518091553.6,21549,8.38,72622.0,-0.83,-0.97,-1.05,0,*5A
1518091554.87,21550,8.38,72622.5,-0.83,-1.05,-1.09,0,*64
1518091556.15,21551,8.38,72618.3,-0.83,-1.05,-1.05,0,*69
1518091557.41,21552,8.38,72618.0,-0.85,-0.97,-1.09,0,*5A
1518091558.67,21553,8.38,72622.5,-0.85,-1.13,-1.09,0,*66
1518091559.93,21554,8.38,72620.0,-0.85,-1.13,-1.09,0,*61
1518091561.2,21555,8.38,72616.3,-0.83,-1.05,-1.05,0,*6D
1518091562.47,21556,8.38,72618.5,-0.83,-1.09,-1.09,0,*6E
1518091563.74,21557,8.38,72618.5,-0.83,-0.97,-1.05,0,*55
1518091565.01,21558,8.38,72622.8,-0.83,-1.05,-1.05,0,*60
1518091566.29,21559,8.38,72618.5,-0.83,-1.05,-1.05,0,*61
1518091567.56,21560,8.38,72618.0,-0.83,-1.05,-1.05,0,*6B
1518091568.84,21561,8.38,72620.3,-0.83,-1.05,-1.05,0,*6A
1518091570.12,21562,8.38,72620.5,-0.83,-1.05,-1.05,0,*69
1518091571.38,21563,8.38,72616.3,-0.85,-1.01,-1.09,0,*66
1518091572.63,21564,8.38,72618.8,-0.85,-1.09,-1.01,0,*61
1518091573.89,21565,8.38,72620.0,-0.85,-1.09,-1.13,0,*63
1518091575.16,21566,8.38,72620.0,-0.83,-1.05,-1.09,0,*61
1518091576.41,21567,8.38,72620.5,-0.85,-1.09,-1.13,0,*61
1518091577.67,21568,8.38,72618.8,-0.85,-1.01,-1.01,0,*65
1518091578.94,21569,8.38,72620.5,-0.83,-0.97,-1.05,0,*58
1518091580.21,21570,8.38,72620.8,-0.83,-0.97,-1.05,0,*50
1518091581.47,21571,8.38,72618.0,-0.85,-1.01,-1.09,0,*65
1518091582.74,21572,8.38,72618.5,-0.83,-0.97,-1.05,0,*52
1518091584.0,21573,8.38,72616.3,-0.85,-1.01,-1.01,0,*6F
1518091585.26,21574,8.38,72622.3,-0.83,-0.93,-0.97,0,*6A
1518091586.51,21575,8.38,72622.0,-0.85,-1.09,-0.97,0,*5F
1518091587.77,21576,8.38,72618.8,-0.83,-0.97,-0.97,0,*6C
1518091589.03,21577,8.38,72620.3,-0.83,-0.97,-0.97,0,*6D
1518091590.29,21578,8.38,72624.3,-0.83,-0.97,-0.97,0,*62
1518091591.55,21579,8.38,72622.0,-0.85,-1.01,-1.01,0,*65
1518091592.81,21580,8.38,72622.8,-0.83,-0.97,-1.05,0,*5F
1518091594.08,21581,8.38,72618.3,-0.83,-0.97,-1.05,0,*5E
1518091595.35,21582,8.38,72616.5,-0.85,-1.01,-1.01,0,*61
1518091596.6,21583,8.38,72618.3,-0.83,-0.97,-0.97,0,*66
1518091597.86,21584,8.38,72616.3,-0.83,-0.97,-0.93,0,*65
1518091599.12,21585,8.38,72616.8,-0.85,-0.97,-1.01,0,*58
1518091600.38,21586,8.38,72616.3,-0.83,-0.97,-0.97,0,*63
1518091601.64,21587,8.38,72618.5,-0.83,-0.97,-0.97,0,*62
1518091602.9,21588,8.38,72618.5,-0.83,-0.97,-0.97,0,*6D
1518091604.16,21589,8.38,72620.5,-0.83,-0.97,-0.97,0,*6C
1518091605.42,21590,8.38,72616.5,-0.83,-0.97,-1.09,0,*52
1518091606.69,21591,8.38,72618.8,-0.83,-0.97,-1.05,0,*5F
1518091607.96,21592,8.38,72616.0,-0.83,-0.97,-1.05,0,*5C
1518091609.23,21593,8.38,72618.3,-0.83,-1.05,-0.97,0,*5D
1518091610.5,21594,8.38,72620.0,-0.83,-1.05,-1.05,0,*60
1518091611.78,21595,8.38,72616.5,-0.83,-1.05,-1.05,0,*61
1518091613.06,21596,8.38,72618.0,-0.83,-1.05,-1.05,0,*62
1518091614.31,21597,8.38,72616.5,-0.85,-1.09,-1.09,0,*65
1518091615.58,21598,8.38,72620.8,-0.83,-1.05,-1.09,0,*60
1518091616.85,21599,8.38,72616.5,-0.83,-1.09,-1.05,0,*61
1518091618.11,21600,8.38,72624.5,-0.85,-1.09,-1.09,0,*68
1518091619.38,21601,8.38,72620.3,-0.83,-1.05,-1.09,0,*63
1518091620.64,21602,8.38,72620.5,-0.85,-1.13,-1.09,0,*61
1518091621.91,21603,8.38,72622.0,-0.83,-1.05,-1.13,0,*6A
1518091623.17,21604,8.38,72622.5,-0.85,-1.09,-1.09,0,*6C
1518091624.43,21605,8.38,72620.5,-0.85,-1.13,-1.09,0,*66
1518091625.69,21606,8.38,72620.0,-0.85,-1.01,-1.13,0,*6D
1518091626.94,21607,8.38,72622.5,-0.85,-1.09,-1.09,0,*6F
1518091628.22,21608,8.38,72624.0,-0.83,-1.05,-1.05,0,*66
1518091629.47,21609,8.38,72618.0,-0.85,-1.09,-1.13,0,*6A
1518091630.75,21610,8.38,72622.0,-0.83,-1.05,-1.05,0,*6F
1518091632.02,21611,8.38,72622.0,-0.83,-1.05,-1.09,0,*62
1518091633.29,21612,8.38,72622.5,-0.83,-1.05,-1.09,0,*61
1518091634.57,21613,8.38,72622.5,-0.83,-1.05,-1.05,0,*6C
1518091635.84,21614,8.38,72622.3,-0.83,-1.05,-1.05,0,*6B
1518091637.12,21615,8.38,72622.5,-0.83,-1.05,-1.05,0,*6A
1518091638.38,21616,8.38,72622.3,-0.85,-1.09,-1.09,0,*6F
1518091639.64,21617,8.38,72618.8,-0.83,-1.09,-1.09,0,*68
1518091640.91,21618,8.38,72620.3,-0.83,-0.97,-1.05,0,*5D
1518091642.17,21619,8.38,72620.0,-0.85,-1.09,-1.09,0,*60
1518091643.42,21620,8.38,72620.8,-0.85,-1.09,-1.09,0,*6A
1518091644.68,21621,8.38,72622.3,-0.85,-1.09,-1.01,0,*63
1518091645.95,21622,8.38,72624.5,-0.83,-1.05,-0.97,0,*54
1518091647.21,21623,8.38,72622.3,-0.83,-1.09,-1.09,0,*6F
1518091648.48,21624,8.38,72618.5,-0.83,-1.05,-1.09,0,*64
1518091649.76,21625,8.38,72622.3,-0.83,-1.05,-1.05,0,*69
1518091651.02,21626,8.38,72620.5,-0.85,-1.09,-1.09,0,*6C
1518091652.27,21627,8.38,72620.0,-0.85,-1.09,-1.13,0,*66
1518091653.54,21628,8.38,72622.8,-0.83,-1.05,-1.09,0,*68
1518091654.81,21629,8.38,72618.8,-0.83,-1.09,-1.05,0,*69
1518091656.08,21630,8.38,72618.3,-0.83,-1.05,-1.09,0,*61
1518091657.36,21631,8.38,72620.0,-0.83,-1.05,-1.09,0,*60
1518091658.63,21632,8.38,72622.8,-0.83,-1.05,-1.09,0,*63
1518091659.9,21633,8.38,72624.0,-0.83,-1.05,-1.05,0,*6E
1518091661.18,21634,8.38,72620.0,-0.83,-1.05,-1.09,0,*65
1518091662.44,21635,8.38,72622.3,-0.83,-1.09,-1.09,0,*68
1518091663.69,21636,8.38,72620.8,-0.81,-1.05,-1.05,0,*69
1518091664.95,21637,8.38,72622.3,-0.85,-1.13,-1.05,0,*6B
1518091666.22,21638,8.38,72624.5,-0.83,-1.09,-1.09,0,*65
1518091667.47,21639,8.38,72622.3,-0.83,-1.17,-1.09,0,*6B
1518091668.73,21640,8.38,72622.3,-0.85,-1.13,-1.09,0,*67
1518091669.98,21641,8.38,72622.0,-0.85,-1.13,-1.13,0,*6D
1518091671.25,21642,8.38,72620.3,-0.83,-1.09,-1.09,0,*68
1518091672.51,21643,8.38,72620.8,-0.83,-1.09,-1.09,0,*69
1518091673.75,21644,8.38,72620.0,-0.85,-1.13,-1.21,0,*69
1518091675.0,21645,8.38,72622.0,-0.83,-1.09,-1.17,0,*60
1518091676.26,21646,8.38,72616.8,-0.83,-1.09,-1.09,0,*6C
1518091677.53,21647,8.38,72622.5,-0.83,-1.09,-1.09,0,*6D
1518091678.79,21648,8.38,72620.5,-0.83,-1.09,-1.09,0,*62
1518091680.06,21649,8.38,72622.8,-0.83,-1.09,-1.09,0,*63
1518091681.33,21650,8.38,72620.0,-0.83,-1.09,-1.05,0,*67
1518091682.59,21651,8.38,72620.5,-0.85,-1.13,-1.13,0,*6C
1518091683.83,21652,8.38,72622.3,-0.83,-1.09,-1.17,0,*66
1518091685.07,21653,8.38,72620.5,-0.85,-1.13,-1.21,0,*6F
1518091686.33,21654,8.38,72624.5,-0.85,-1.13,-1.13,0,*69
1518091687.58,21655,8.38,72620.0,-0.83,-1.13,-1.21,0,*6F
1518091688.83,21656,8.38,72624.5,-0.85,-1.13,-1.13,0,*6B
1518091690.08,21657,8.38,72626.5,-0.83,-1.09,-1.21,0,*66
1518091691.31,21658,8.38,72622.8,-0.83,-1.17,-1.17,0,*63
1518091692.53,21659,8.38,72626.8,-0.83,-1.17,-1.21,0,*67
1518091693.75,21660,8.38,72620.0,-0.85,-1.21,-1.21,0,*6E
1518091695.0,21661,8.38,72624.0,-0.83,-1.09,-1.21,0,*63
1518091696.23,21662,8.38,72626.3,-0.85,-1.21,-1.13,0,*6D
1518091697.45,21663,8.38,72620.5,-0.85,-1.21,-1.21,0,*6D
1518091698.66,21664,8.38,72622.8,-0.85,-1.25,-1.25,0,*6A
1518091699.89,21665,8.38,72622.8,-0.85,-1.13,-1.25,0,*6E
1518091701.11,21666,8.38,72622.5,-0.85,-1.25,-1.21,0,*6C
1518091702.33,21667,8.38,72626.3,-0.85,-1.21,-1.21,0,*69
1518091703.54,21668,8.38,72620.5,-0.85,-1.21,-1.21,0,*66
1518091704.76,21669,8.38,72624.8,-0.85,-1.21,-1.25,0,*63
1518091705.97,21670,8.38,72624.5,-0.85,-1.21,-1.21,0,*6F
1518091707.21,21671,8.38,72622.8,-0.85,-1.21,-1.13,0,*6F
1518091708.45,21672,8.38,72622.5,-0.85,-1.21,-1.13,0,*6C
1518091709.7,21673,8.38,72620.0,-0.85,-1.13,-1.13,0,*6C
1518091710.96,21674,8.38,72622.3,-0.85,-1.09,-1.13,0,*60
1518091712.21,21675,8.38,72622.3,-0.85,-1.13,-1.13,0,*6A
1518091713.47,21676,8.38,72622.3,-0.85,-1.13,-1.13,0,*69
1518091714.71,21677,8.38,72622.0,-0.85,-1.09,-1.21,0,*62
1518091715.97,21678,8.38,72620.8,-0.85,-1.13,-1.13,0,*67
1518091717.22,21679,8.38,72622.0,-0.85,-1.13,-1.13,0,*66
1518091718.5,21680,8.38,72622.8,-0.83,-1.05,-1.09,0,*6A
1518091719.75,21681,8.38,72622.0,-0.85,-1.13,-1.13,0,*61
1518091720.99,21682,8.38,72622.5,-0.85,-1.13,-1.21,0,*63
1518091722.23,21683,8.38,72620.0,-0.85,-1.13,-1.21,0,*62
1518091723.48,21684,8.38,72616.8,-0.83,-1.17,-1.09,0,*6D
1518091724.75,21685,8.38,72622.8,-0.83,-1.09,-1.09,0,*63
1518091726.01,21686,8.38,72616.8,-0.85,-1.13,-1.09,0,*6D